Regional Weather Roundup
Issued by NWS Wakefield, VA

Home | Current Version | Previous Version | Graphics & Text | Print | Product List | Glossary On
Versions: 1 2 3 4 5 6 7 8 9 10 11 12 13 14 15 16 17 18 19 20 21 22 23 24 25 26 27 28
000
ASUS41 KAKQ 182310
RWRAKQ

REGIONAL WEATHER ROUNDUP
NATIONAL WEATHER SERVICE WAKEFIELD VA
700 PM EDT FRI APR 18 2014

Note: "fair" indicates few or no clouds below 12,000 feet with no
significant weather and/or obstructions to visibility. * = Denotes
station may not report precipitation (e.g., rain,snow,etc.),
thunder or fog.

VAZ042-051-052>054-056-190000-
NORTHERN VIRGINIA

CITY           SKY/WX    TMP DP  RH WIND       PRES   REMARKS
WASH NATIONAL  CLOUDY    54  34  46 SE7       30.30F
DULLES         CLOUDY    53  33  46 S6        30.27F
FORT BELVOIR   CLOUDY    53  35  51 SE8       30.29F
QUANTICO       CLOUDY    52  36  54 SE10      30.30F
FREDERICKSBRG* CLOUDY    52  37  58 E7        30.29R
STAFFORD*      CLOUDY    51  38  59 E6        30.34R
WARRENTON      CLOUDY    54  41  62 SE5       30.29R
CULPEPER*      CLOUDY    57  34  41 CALM      30.29S
MANASSAS*      CLOUDY    54  36  50 SE8       30.28F
LEESBURG*      CLOUDY    55  36  47 CALM      30.28S
WINCHESTER     CLOUDY    55  36  47 SE8       30.25S
$$

VAZ048-049-060>072-079>083-190000-
CENTRAL AND SOUTH CENTRAL VIRGINIA...AND NORTH CENTRAL NORTH CAROLINA

CITY           SKY/WX    TMP DP  RH WIND       PRES   REMARKS
RICHMOND       CLOUDY    52  35  52 E6        30.30S
CHESTERFIELD*  NOT AVBL
HANOVER        CLOUDY    52  35  52 SE5       30.31F
TAPPAHANNOCK*  CLOUDY    50  34  53 E5        30.30F
CHARLOTTSVILLE CLOUDY    55  38  52 S3        30.28R
ORANGE*        CLOUDY    54  36  50 SE3       30.29F
LOUISA*        CLOUDY    54  37  54 CALM      30.28R
FARMVILLE*     CLOUDY    55  37  50 CALM      30.28R
SOUTH HILL*    CLOUDY    55  39  54 CALM      30.34R
ROANOKE RAPIDS CLOUDY    57  45  62 CALM      30.29R
RALEIGH        CLOUDY    58  40  51 NE7       30.26F
$$

VAZ088>098-190000-
SOUTHEAST VIRGINIA

CITY           SKY/WX    TMP DP  RH WIND       PRES   REMARKS
NORFOLK        CLOUDY    46  40  79 NE10      30.31F
VIRGINIA BEACH CLOUDY    46  40  79 NE10      30.31S
NORFOLK NAVAL  CLOUDY    48  41  76 NE9       30.34R
WEST POINT*    CLOUDY    52  38  58 NE3       30.33F
NEWPORT NEWS   CLOUDY    50  41  71 NE8       30.32S
LANGLEY AFB    CLOUDY    47  42  83 E7        30.33S
FORT EUSTIS    CLOUDY    48  41  77 SE7       30.31R
WILLIAMSBURG*    N/A     50  43  76 E3        30.33S
FRANKLIN*      CLOUDY    52  43  71 E8        30.31S
WAKEFIELD      CLOUDY    51  40  65 CALM      30.32R
$$

VAZ020-022-025-037-045-190000-
WESTERN AND SOUTHWEST VIRGINIA

CITY           SKY/WX    TMP DP  RH WIND       PRES   REMARKS
STAUNTON*      CLOUDY    55  36  47 SE3       30.27S
HOT SPRINGS VA CLOUDY    50  36  57 S3        30.30S
LYNCHBURG      CLOUDY    58  38  47 CALM      30.30R
DANVILLE       CLOUDY    56  39  53 NE5       30.29R
MARTINSVILLE   CLOUDY    53  45  74 CALM      30.31S
ROANOKE        CLOUDY    53  38  56 SE6       30.30S
BLACKSBURG     CLOUDY    54  43  66 CALM      30.29S
DUBLIN*        CLOUDY    54  38  55 CALM      30.27S
MARION*        CLOUDY    55  34  46 E3        30.29R
HILLSVILLE*    CLOUDY    54  37  54 CALM      30.30R
RICHLANDS*     CLOUDY    63  32  32 CALM      30.24S
WISE*          CLOUDY    61  34  36 CALM      30.24F
ABINGDON*      CLOUDY    60  33  35 SE3       30.24S
$$

MDZ021>025-VAZ099-100-190000-
SOUTHERN MARYLAND AND THE DELMARVA PENINSULA

CITY           SKY/WX    TMP DP  RH WIND       PRES   REMARKS
PATUXENT RIVER CLOUDY    50  37  61 E5        30.30F
BAY BRIDGE APT CLOUDY    48  36  61 CALM      30.32F
LEONARDTOWN    CLOUDY    50  36  57 CALM      30.32F
DOVER          CLOUDY    45  40  82 SE8       30.29F
GEORGETOWN     CLOUDY    46  37  71 SE7       30.34S
EASTON         CLOUDY    50  41  71 CALM      30.36S
CAMBRIDGE      CLOUDY    52  41  66 W5        30.32S
SALISBURY      CLOUDY    49  38  65 E7        30.32F
OCEAN CITY     CLOUDY    44  38  79 E5        30.34F
WALLOPS ISLAND CLOUDY    46  41  82 E9        30.33F
ACCOMACK*      CLOUDY    45  37  76 E9        30.32F
$$

NCZ012>017-030>032-190000-
EASTERN NORTH CAROLINA

CITY           SKY/WX    TMP DP  RH WIND       PRES   REMARKS
ELIZABETH CITY CLOUDY    49  40  71 N13       30.31R
AHOSKIE*       CLOUDY    55  41  60 N6        30.30R
EDENTON*       CLOUDY    51  44  75 NE6       30.30R
CURRITUCK*     CLOUDY    48  41  76 N7        30.32S
KILL DEVIL HLS CLOUDY    47  44  89 NE7       30.27F
MANTEO         CLOUDY    47  44  88 NE13      30.27F
CAPE HATTERAS  CLOUDY    51  48  89 NE13G20   30.25F
GOLDSBORO      CLOUDY    62  47  59 NE7       30.22F
WASHINGTON     CLOUDY    58  49  70 NE7       30.28R
GREENVILLE     CLOUDY    61  45  55 E7        30.28R
NEW BERN       CLOUDY    60  47  61 NE12      30.25S
WILMINGTON     LGT RAIN  59  54  83 NE14      30.20F
$$

VAZ048-190000-
ELSEWHERE

CITY           SKY/WX    TMP DP  RH WIND       PRES   REMARKS
HARRISBURG PA  CLOUDY    53  34  48 SE5       30.27F
BALTIMORE      CLOUDY    50  33  52 E6        30.29F
ANNAPOLIS      CLOUDY    51  34  52 CALM      30.30F
ANDREWS AFB    CLOUDY    50  34  54 SE7       30.29F
WILMINGTON DE  MOCLDY    51  32  48 SE8       30.31F
PHILADELPHIA   MOCLDY    54  29  38 CALM      30.31F
WILDWOOD NJ*   CLOUDY    43  34  70 NE7       30.34F
ATLANTIC CITY  MOCLDY    42  35  76 E7        30.34F
HENDERSON NC   CLOUDY    55  38  54 NE3       30.28S
GREENSBORO     CLOUDY    56  37  49 N5        30.25F
ROCKY MOUNT    CLOUDY    59  43  55 N8        30.28R
FAYETTEVILLE   CLOUDY    62  44  51 NE7       30.21F
CHARLOTTE      RAIN      50  46  86 N9        30.26F FOG
$$

VAZ100-190000-
MARINE

STATION/POSITION TIME  TEMP    WIND        PRES    WAVE   SWELL
                       AIR SEA DIR/SP/G            HT/PER HT/PER
                 (UTC) (F)     (DEG/KT/KT) (MB)    (FT/S) (FT/S)
44066 TX TWR #4  2300   41 44   40/  8/ 12 1026.7F   8/11   8/11
CAPE MAY NJ      2300   43 53   90/  5/  8 1026.7F
LEWES DE         2300   43 49  110/  8/  9 1026.1F
15NM E FENWICK I 2300   43 45              1026.9F   6/11
OCEAN-CITY-INLET 2300   44 48   90/  5/  7 1027.1R
WACHAPREAGUE VA  2300   45 55   60/  9/ 13 1026.7F
THOMAS POINT MD  2300   49 52   CALM  /  1 1027.2F
GOOSES REEF MD   2300   48      20/  4/  6 1027.6F
COVE POINT MD    2300   48     360/  4/  5 1026.5F
SOLOMONS ISLAND  2300      52                N/A
BISHOPS HEAD MD  2300   50 55  300/  5/  7 1026.2F
PINEY POINT MD   2300          180/  3/  3   N/A
POTOMAC MD       2300   48     350/  2/  4 1025.9F
CAMBRIDGE MD     2300   49 55  320/  5/  8 1025.8F
LEWISETTA VA     2300   49 53   70/  2/  3 1026.2F
RAPPAHANNOCK LGT 2300           70/ 10/ 11 1026.8F
STINGRAY PT      2300   47      CALM  /  4 1026.8S
YORK RVR RNG VA  2300   47      80/  8/  9 1025.9F
YORKTOWN VA      2300   48 55   80/  8/ 10 1026.2F
JAMESTOWN VA     2300   49     110/  6/ 10   N/A
DOMINION TERM VA 2300   48      60/  8/ 10 1026.4F
KIPTOPEKE VA     2300      53   60/  5/  8   N/A
CHES BAY BRIDGE  2300   45 51   40/ 12/ 14 1026.3F
CAPE HENRY VA    2300   45      40/ 12/ 13   N/A
CHESAPEAKE LGHT  2200   45      60/ 14/ 15 1027.0F
WILLOUBY STN VA  2300   46      70/ 10/ 12 1025.6F
S CRANEY ISL VA  2300           40/ 10/ 12 1026.8R
CAPE HENRY BUOY  2300      47                N/A     6/11   3/11
1ST LANDING BUOY 2300      46                N/A     5/11   5/11
64NM E OF VA BCH 2300   47 49   10/ 17/ 19 1024.9F   7/ 9   7/ 9
DUCK PIER NC     2300   46 51   20/ 18/ 19 1024.4F
44100 DUCK FRF   2300      48                N/A     7/ 9   2/11
44056 DUCK FRF   2300      49                N/A     6/10   2/11
OREGON INLET NC  2300   47 52   10/ 13/ 17 1025.0R
HATTERAS NC      2300   51 56   30/ 14/ 20 1024.5F
CAPE LOOKOUT NC  2200   56      30/ 22/ 26 1023.3F
FRYING PAN SHLS  2300   62 64   60/ 25/ 33 1019.9F   9/ 7
$$



USA.gov is the U.S. government's official web portal to all federal, state and local government web resources and services.